Regional Weather Roundup
Issued by NWS

Home | Current Version | Previous Version | Graphics & Text | Print | Product List | Glossary On
Versions: 1 2 3 4 5 6 7 8 9 10 11 12 13 14 15 16 17 18 19 20 21 22 23 24 25 26 27 28 29 30 31 32 33 34 35 36 37 38 39 40 41 42 43 44 45 46 47 48 49 50
000
ASUS45 KABQ 020701
RWRNM
NEW MEXICO REGIONAL WEATHER ROUNDUP
NATIONAL WEATHER SERVICE ALBUQUERQUE NM
1200 AM MST FRI DEC 02 2016

NOTE: "FAIR" MEANS FEW OR NO CLOUDS BELOW 12,000 FEET AGL WITH NO
       SIGNIFICANT WEATHER OR OBSTRUCTIONS TO VISION.

      THIS PRODUCT IS RELEASED AS TWO VERSIONS.  ONE VERSION NEAR
      THE TOP OF THE HOUR CONTAINING PRELIMINARY DATA FROM ALBUQUERQUE
      AND OTHER STATIONS.  A FINAL VERSION WITH ADDITIONAL DATA IS
      ISSUED ABOUT 10 MINUTES AFTER THE HOUR.

NMZ501-503-504-510>518-020800-
NORTHWEST PLATEAU/NORTHCENTRAL MOUNTAINS

CITY           SKY/WX    TMP DP  RH WIND       PRES   REMARKS
FARMINGTON     FAIR      21  16  81 NE8       30.00R WCI  11
LOS ALAMOS     FAIR      31  13  47 CALM      30.00S
SANTA FE       FAIR      24  15  68 N7        29.98F WCI  16
TAOS           FAIR      19   7  58 N8        29.99S WCI   9
ANGEL FIRE     FAIR       5   2  89 CALM      30.01S

$$
NMZ402-403-502-505>509-020800-
WESTCENTRAL MOUNTAINS/SOUTHWEST MOUNTAINS

CITY           SKY/WX    TMP DP  RH WIND       PRES   REMARKS
GALLUP         MOCLDY    23  19  85 CALM      29.97F
GRANTS         CLOUDY    26  17  68 CALM      29.98F

$$
NMZ407-409-411-412-020800-
SOUTHERN DESERTS

CITY           SKY/WX    TMP DP  RH WIND       PRES   REMARKS
DEMING         FAIR      34  21  59 CALM      29.91F
LAS CRUCES     FAIR      35  21  57 S3        29.93F
HOLLOMAN AFB   FAIR      30  13  48 NE9       29.97F WCI  22
T OR C         FAIR      40  15  36 NW6       29.93F

$$
NMZ519>523-020800-
CENTRAL VALLEYS/CENTRAL HIGHLANDS

CITY           SKY/WX    TMP DP  RH WIND       PRES   REMARKS
ALBUQUERQUE    MOCLDY    36  15  42 N8        29.97F WCI  30
DOUBLE EAGLE   FAIR      31  17  55 NE3       29.98F
MORIARTY ARPT  CLOUDY    21  13  71 NW3       30.00F
CLINES CORNERS MOCLDY    29   9  43 CALM      29.99S
BELEN          FAIR      26  13  58 CALM      29.97F
SOCORRO        MOCLDY    32  13  45 NW8       29.97S WCI  25

$$
NMZ524>526-539-540-020800-
SOUTHCENTRAL MOUNTAINS

CITY           SKY/WX    TMP DP  RH WIND       PRES   REMARKS
RUIDOSO        FAIR      28  10  47 SW9       30.00R WCI  20

$$
NMZ527>531-020800-
NORTHEAST HIGHLANDS/NORTHEAST PLAINS

CITY           SKY/WX    TMP DP  RH WIND       PRES   REMARKS
LAS VEGAS      FAIR      21  13  71 N9        29.99S WCI  11
RATON          FAIR      18   9  68 NW5       30.01R WCI  11
CLAYTON        FAIR      23  13  65 CALM      30.03S

$$
NMZ532>537-020800-
EASTCENTRAL PLAINS

CITY           SKY/WX    TMP DP  RH WIND       PRES   REMARKS
TUCUMCARI      FAIR      27  14  58 N8        30.01R WCI  19
CANNON AFB     CLOUDY    34  17  49 E7        29.99R WCI  28
CLOVIS AIRPORT FAIR      34  16  47 NE9       29.99R WCI  26

$$
NMZ028-029-538-020800-
SOUTHEAST PLAINS

CITY           SKY/WX    TMP DP  RH WIND       PRES   REMARKS
ROSWELL        FAIR      33  17  51 W9        29.95R WCI  25
ARTESIA        FAIR      36  19  51 W6        29.95S WCI  31
CARLSBAD       FAIR      37  23  56 N7        29.93S WCI  32
HOBBS          FAIR      34  23  64 CALM      29.96S


$$




USA.gov is the U.S. government's official web portal to all federal, state and local government web resources and services.